TimeCST,TemperatureF,Dew PointF,Humidity,Sea Level PressureIn,VisibilityMPH,Wind Direction,Wind SpeedMPH,Gust SpeedMPH,PrecipitationIn,Events,Conditions,WindDirDegrees,DateUTC
12:15 AM,35.6,23.0,60,30.25,10.0,WNW,11.5,-,N/A,,Clear,290,2013-02-03 06:15:00
12:35 AM,35.6,23.0,60,30.26,10.0,West,11.5,-,N/A,,Clear,280,2013-02-03 06:35:00
12:55 AM,35.6,23.0,60,30.26,10.0,West,10.4,-,N/A,,Clear,280,2013-02-03 06:55:00
1:15 AM,33.8,23.0,65,30.26,10.0,West,12.7,-,N/A,,Clear,280,2013-02-03 07:15:00
1:35 AM,33.8,23.0,65,30.27,10.0,West,12.7,-,N/A,,Clear,270,2013-02-03 07:35:00
1:55 AM,32.0,23.0,69,30.26,10.0,WNW,9.2,-,N/A,,Clear,300,2013-02-03 07:55:00
2:15 AM,33.8,23.0,65,30.26,10.0,West,11.5,-,N/A,,Clear,270,2013-02-03 08:15:00
2:35 AM,32.0,23.0,69,30.26,10.0,West,10.4,-,N/A,,Clear,280,2013-02-03 08:35:00
2:55 AM,32.0,23.0,69,30.27,10.0,Calm,Calm,-,N/A,,Clear,0,2013-02-03 08:55:00
3:15 AM,32.0,21.2,64,30.27,10.0,Calm,Calm,-,N/A,,Clear,0,2013-02-03 09:15:00
3:55 AM,28.4,21.2,74,30.26,10.0,West,6.9,-,N/A,,Clear,270,2013-02-03 09:55:00
4:15 AM,28.4,23.0,80,30.26,10.0,WNW,8.1,-,N/A,,Clear,290,2013-02-03 10:15:00
4:35 AM,32.0,21.2,64,30.26,10.0,West,8.1,-,N/A,,Clear,280,2013-02-03 10:35:00
4:55 AM,28.4,21.2,74,30.26,10.0,West,8.1,-,N/A,,Clear,280,2013-02-03 10:55:00
5:15 AM,28.4,21.2,74,30.27,10.0,West,6.9,-,N/A,,Clear,280,2013-02-03 11:15:00
5:35 AM,28.4,21.2,74,30.27,10.0,NW,5.8,-,N/A,,Clear,320,2013-02-03 11:35:00
5:55 AM,26.6,21.2,80,30.28,10.0,Calm,Calm,-,N/A,,Clear,0,2013-02-03 11:55:00
6:15 AM,26.6,19.4,74,30.28,10.0,Calm,Calm,-,N/A,,Clear,0,2013-02-03 12:15:00
6:35 AM,26.6,21.2,80,30.28,10.0,Calm,Calm,-,N/A,,Clear,0,2013-02-03 12:35:00
6:55 AM,28.4,19.4,69,30.29,10.0,NW,3.5,-,N/A,,Clear,310,2013-02-03 12:55:00
7:15 AM,28.4,21.2,74,30.29,10.0,West,6.9,-,N/A,,Clear,270,2013-02-03 13:15:00
7:35 AM,26.6,19.4,74,30.29,10.0,West,4.6,-,N/A,,Clear,280,2013-02-03 13:35:00
7:55 AM,26.6,21.2,80,30.30,10.0,WSW,3.5,-,N/A,,Clear,250,2013-02-03 13:55:00
8:15 AM,28.4,23.0,80,30.29,10.0,Calm,Calm,-,N/A,,Clear,0,2013-02-03 14:15:00
8:35 AM,32.0,23.0,69,30.29,10.0,Calm,Calm,-,N/A,,Clear,0,2013-02-03 14:35:00
8:55 AM,32.0,24.8,75,30.30,10.0,SW,3.5,-,N/A,,Clear,230,2013-02-03 14:55:00
9:15 AM,35.6,26.6,70,30.30,10.0,SW,3.5,-,N/A,,Clear,220,2013-02-03 15:15:00
9:35 AM,39.2,26.6,61,30.29,10.0,Calm,Calm,-,N/A,,Clear,0,2013-02-03 15:35:00
9:55 AM,41.0,24.8,53,30.29,10.0,ESE,4.6,-,N/A,,Clear,120,2013-02-03 15:55:00
10:15 AM,42.8,24.8,49,30.29,10.0,SE,8.1,-,N/A,,Clear,130,2013-02-03 16:15:00
10:35 AM,44.6,24.8,46,30.28,10.0,ESE,10.4,-,N/A,,Clear,120,2013-02-03 16:35:00
10:55 AM,44.6,24.8,46,30.27,10.0,ESE,10.4,-,N/A,,Clear,120,2013-02-03 16:55:00
11:15 AM,46.4,24.8,43,30.26,10.0,ESE,10.4,-,N/A,,Clear,120,2013-02-03 17:15:00
11:35 AM,48.2,26.6,43,30.25,10.0,ESE,11.5,-,N/A,,Clear,120,2013-02-03 17:35:00
11:55 AM,48.2,24.8,40,30.23,10.0,SE,12.7,-,N/A,,Clear,130,2013-02-03 17:55:00
12:15 PM,50.0,24.8,37,30.21,10.0,SE,12.7,-,N/A,,Clear,130,2013-02-03 18:15:00
12:35 PM,51.8,23.0,33,30.19,10.0,ESE,12.7,-,N/A,,Clear,120,2013-02-03 18:35:00
12:55 PM,53.6,24.8,33,30.18,10.0,SE,9.2,-,N/A,,Clear,140,2013-02-03 18:55:00
1:15 PM,53.6,23.0,30,30.17,10.0,SE,12.7,20.7,N/A,,Clear,140,2013-02-03 19:15:00
1:35 PM,55.4,23.0,29,30.14,10.0,SSE,17.3,-,N/A,,Clear,160,2013-02-03 19:35:00
1:55 PM,55.4,24.8,31,30.12,10.0,SSE,12.7,20.7,N/A,,Clear,160,2013-02-03 19:55:00
2:15 PM,57.2,23.0,27,30.10,10.0,SSE,18.4,23.0,N/A,,Clear,150,2013-02-03 20:15:00
2:35 PM,57.2,23.0,27,30.08,10.0,SSE,18.4,23.0,N/A,,Clear,160,2013-02-03 20:35:00
2:55 PM,57.2,23.0,27,30.07,10.0,SSE,18.4,-,N/A,,Clear,160,2013-02-03 20:55:00
3:15 PM,59.0,23.0,25,30.06,10.0,South,17.3,24.2,N/A,,Clear,170,2013-02-03 21:15:00
3:35 PM,57.2,24.8,29,30.06,10.0,South,17.3,24.2,N/A,,Clear,170,2013-02-03 21:35:00
3:55 PM,59.0,24.8,27,30.05,10.0,South,18.4,21.9,N/A,,Clear,170,2013-02-03 21:55:00
4:15 PM,59.0,24.8,27,30.04,10.0,South,17.3,-,N/A,,Clear,180,2013-02-03 22:15:00
4:35 PM,57.2,24.8,29,30.03,10.0,South,16.1,-,N/A,,Clear,170,2013-02-03 22:35:00
4:55 PM,55.4,24.8,31,30.03,10.0,South,12.7,-,N/A,,Clear,170,2013-02-03 22:55:00
5:15 PM,55.4,26.6,33,30.01,10.0,SSE,12.7,-,N/A,,Clear,160,2013-02-03 23:15:00
5:35 PM,53.6,26.6,35,30.00,10.0,SSE,12.7,-,N/A,,Clear,160,2013-02-03 23:35:00
5:55 PM,53.6,28.4,38,29.99,10.0,SSE,10.4,-,N/A,,Clear,150,2013-02-03 23:55:00
6:15 PM,51.8,28.4,41,29.99,10.0,SSE,11.5,-,N/A,,Clear,150,2013-02-04 00:15:00
6:35 PM,51.8,26.6,38,29.98,10.0,SSE,12.7,-,N/A,,Clear,150,2013-02-04 00:35:00
6:55 PM,50.0,28.4,43,29.98,10.0,SSE,12.7,-,N/A,,Clear,160,2013-02-04 00:55:00
7:15 PM,50.0,28.4,43,29.97,10.0,SSE,13.8,-,N/A,,Clear,150,2013-02-04 01:15:00
7:35 PM,50.0,28.4,43,29.96,10.0,SSE,12.7,-,N/A,,Clear,160,2013-02-04 01:35:00
7:55 PM,50.0,28.4,43,29.95,10.0,SSE,15.0,-,N/A,,Clear,150,2013-02-04 01:55:00
8:15 PM,50.0,28.4,43,29.95,10.0,SSE,13.8,-,N/A,,Clear,150,2013-02-04 02:15:00
8:35 PM,50.0,28.4,43,29.94,10.0,SSE,12.7,-,N/A,,Clear,150,2013-02-04 02:35:00
8:55 PM,50.0,28.4,43,29.93,10.0,SSE,13.8,-,N/A,,Clear,150,2013-02-04 02:55:00
9:15 PM,48.2,28.4,46,29.93,10.0,SSE,11.5,-,N/A,,Clear,150,2013-02-04 03:15:00
9:35 PM,48.2,28.4,46,29.92,10.0,SSE,11.5,-,N/A,,Clear,160,2013-02-04 03:35:00
9:55 PM,48.2,30.2,50,29.91,10.0,SSE,11.5,-,N/A,,Mostly Cloudy,160,2013-02-04 03:55:00
10:15 PM,48.2,30.2,50,29.91,10.0,SSE,11.5,-,N/A,,Overcast,160,2013-02-04 04:15:00
10:35 PM,48.2,30.2,50,29.90,10.0,SSE,11.5,-,N/A,,Scattered Clouds,160,2013-02-04 04:35:00
10:55 PM,48.2,30.2,50,29.89,10.0,South,9.2,-,N/A,,Partly Cloudy,170,2013-02-04 04:55:00
11:15 PM,48.2,30.2,50,29.89,10.0,South,9.2,-,N/A,,Scattered Clouds,170,2013-02-04 05:15:00
11:35 PM,48.2,32.0,54,29.88,10.0,South,8.1,-,N/A,,Mostly Cloudy,170,2013-02-04 05:35:00
11:55 PM,48.2,32.0,54,29.87,10.0,South,10.4,-,N/A,,Overcast,170,2013-02-04 05:55:00